Time,TemperatureF,DewpointF,PressureIn,WindDirection,WindDirectionDegrees,WindSpeedMPH,WindSpeedGustMPH,Humidity,HourlyPrecipIn,Conditions,Clouds,dailyrainin,SoftwareType,DateUTC
2013-07-20 00:02:00,70.9,67.5,29.82,WSW,238,2.0,2.0,89,0.05,,,0.00,WeatherCatV1.15B25,2013-07-20 04:02:00,
2013-07-20 00:04:00,70.9,67.5,29.83,WSW,239,1.0,2.0,89,0.05,,,0.00,WeatherCatV1.15B25,2013-07-20 04:04:00,
2013-07-20 00:05:00,70.9,67.5,29.83,WSW,238,3.0,3.0,89,0.05,,,0.00,WeatherCatV1.15B25,2013-07-20 04:05:00,
2013-07-20 00:06:00,70.9,67.5,29.83,WSW,239,1.0,3.0,89,0.05,,,0.00,WeatherCatV1.15B25,2013-07-20 04:06:00,
2013-07-20 00:09:00,70.8,67.4,29.83,WSW,238,0.0,2.0,89,0.05,,,0.00,WeatherCatV1.15B25,2013-07-20 04:09:00,
2013-07-20 00:14:00,70.8,67.7,29.84,WSW,239,1.0,3.0,90,0.00,,,0.00,WeatherCatV1.15B25,2013-07-20 04:14:00,
2013-07-20 00:19:00,70.6,67.5,29.83,SW,222,2.0,3.0,90,0.00,,,0.00,WeatherCatV1.15B25,2013-07-20 04:19:00,
2013-07-20 00:24:00,70.5,67.4,29.82,West,280,1.0,2.0,90,0.00,,,0.00,WeatherCatV1.15B25,2013-07-20 04:24:00,
2013-07-20 00:29:00,70.4,67.3,29.81,SSW,209,1.0,1.0,90,0.00,,,0.01,WeatherCatV1.15B25,2013-07-20 04:29:00,
2013-07-20 00:34:00,70.4,67.3,29.82,SW,214,1.0,2.0,90,0.00,,,0.01,WeatherCatV1.15B25,2013-07-20 04:34:00,
2013-07-20 00:39:00,70.3,67.2,29.83,West,260,3.0,4.0,90,0.00,,,0.01,WeatherCatV1.15B25,2013-07-20 04:39:00,
2013-07-20 00:44:00,70.3,67.2,29.83,SW,232,3.0,3.0,90,0.00,,,0.01,WeatherCatV1.15B25,2013-07-20 04:44:00,
2013-07-20 00:49:00,70.4,67.3,29.83,SW,232,0.0,2.0,90,0.00,,,0.01,WeatherCatV1.15B25,2013-07-20 04:49:00,
2013-07-20 00:54:00,70.4,67.3,29.83,SW,232,0.0,0.0,90,0.00,,,0.02,WeatherCatV1.15B25,2013-07-20 04:54:00,
2013-07-20 00:59:00,70.4,67.6,29.82,SW,232,0.0,0.0,91,0.00,,,0.02,WeatherCatV1.15B25,2013-07-20 04:59:00,
2013-07-20 01:04:00,70.4,67.6,29.80,SW,232,0.0,0.0,91,0.07,,,0.03,WeatherCatV1.15B25,2013-07-20 05:04:00,
2013-07-20 01:09:00,70.4,67.6,29.80,SW,232,0.0,0.0,91,0.16,,,0.05,WeatherCatV1.15B25,2013-07-20 05:09:00,
2013-07-20 01:14:00,70.4,67.6,29.80,SW,232,0.0,0.0,91,0.19,,,0.06,WeatherCatV1.15B25,2013-07-20 05:14:00,
2013-07-20 01:19:00,70.3,67.5,29.81,SW,230,2.0,4.0,91,0.18,,,0.08,WeatherCatV1.15B25,2013-07-20 05:19:00,
2013-07-20 01:24:00,70.2,67.4,29.81,SW,230,2.0,2.0,91,0.21,,,0.09,WeatherCatV1.15B25,2013-07-20 05:24:00,
2013-07-20 01:29:00,70.2,67.4,29.80,SW,219,0.0,3.0,91,0.20,,,0.11,WeatherCatV1.15B25,2013-07-20 05:29:00,
2013-07-20 01:34:00,70.2,67.4,29.79,SSW,207,1.0,3.0,91,0.16,,,0.12,WeatherCatV1.15B25,2013-07-20 05:34:00,
2013-07-20 01:39:00,70.3,67.5,29.79,SSW,206,0.0,0.0,91,0.12,,,0.13,WeatherCatV1.15B25,2013-07-20 05:39:00,
2013-07-20 01:44:00,70.3,67.5,29.78,SSW,206,0.0,0.0,91,0.06,,,0.13,WeatherCatV1.15B25,2013-07-20 05:44:00,
2013-07-20 01:49:00,70.4,67.6,29.78,SSW,207,0.0,0.0,91,0.06,,,0.14,WeatherCatV1.15B25,2013-07-20 05:49:00,
2013-07-20 01:54:00,70.4,67.6,29.78,SSW,207,1.0,1.0,91,0.08,,,0.15,WeatherCatV1.15B25,2013-07-20 05:54:00,
2013-07-20 01:59:00,70.4,67.6,29.77,SSW,206,0.0,0.0,91,0.16,,,0.17,WeatherCatV1.15B25,2013-07-20 05:59:00,
2013-07-20 02:04:00,70.3,67.9,29.77,SSW,206,0.0,0.0,92,0.11,,,0.18,WeatherCatV1.15B25,2013-07-20 06:04:00,
2013-07-20 02:09:00,70.4,68.0,29.77,SSW,207,0.0,0.0,92,0.11,,,0.18,WeatherCatV1.15B25,2013-07-20 06:09:00,
2013-07-20 02:14:00,70.3,67.9,29.76,SSW,206,0.0,0.0,92,0.08,,,0.19,WeatherCatV1.15B25,2013-07-20 06:14:00,
2013-07-20 02:19:00,70.3,67.9,29.76,SSW,206,0.0,1.0,92,0.08,,,0.19,WeatherCatV1.15B25,2013-07-20 06:19:00,
2013-07-20 02:24:00,70.3,67.9,29.77,SSW,207,0.0,0.0,92,0.05,,,0.19,WeatherCatV1.15B25,2013-07-20 06:24:00,
2013-07-20 02:29:00,70.3,67.9,29.76,SSW,207,0.0,1.0,92,0.00,,,0.19,WeatherCatV1.15B25,2013-07-20 06:29:00,
2013-07-20 02:34:00,70.2,67.8,29.76,SSW,207,2.0,2.0,92,0.00,,,0.20,WeatherCatV1.15B25,2013-07-20 06:34:00,
2013-07-20 02:39:00,70.1,67.7,29.76,SSW,207,0.0,0.0,92,0.00,,,0.20,WeatherCatV1.15B25,2013-07-20 06:39:00,
2013-07-20 02:44:00,70.1,67.7,29.77,WSW,257,1.0,3.0,92,0.06,,,0.21,WeatherCatV1.15B25,2013-07-20 06:44:00,
2013-07-20 02:49:00,70.1,67.7,29.77,WSW,247,3.0,3.0,92,0.06,,,0.21,WeatherCatV1.15B25,2013-07-20 06:49:00,
2013-07-20 02:54:00,70.1,67.7,29.79,SW,233,3.0,3.0,92,0.06,,,0.22,WeatherCatV1.15B25,2013-07-20 06:54:00,
2013-07-20 02:59:00,70.1,67.7,29.79,SW,234,0.0,0.0,92,0.33,,,0.24,WeatherCatV1.15B25,2013-07-20 06:59:00,
2013-07-20 03:04:00,70.2,67.8,29.80,SW,234,3.0,5.0,92,1.47,,,0.30,WeatherCatV1.15B25,2013-07-20 07:04:00,
2013-07-20 03:09:00,71.0,68.6,29.80,WNW,286,3.0,7.0,92,0.39,,,0.37,WeatherCatV1.15B25,2013-07-20 07:09:00,
2013-07-20 03:14:00,71.7,69.2,29.80,West,279,3.0,10.0,92,1.15,,,0.43,WeatherCatV1.15B25,2013-07-20 07:14:00,
2013-07-20 03:19:00,71.8,69.3,29.79,SSW,205,6.0,7.0,92,1.92,,,0.55,WeatherCatV1.15B25,2013-07-20 07:19:00,
2013-07-20 03:24:00,71.4,68.9,29.78,WNW,292,4.0,10.0,92,0.80,,,0.63,WeatherCatV1.15B25,2013-07-20 07:24:00,
2013-07-20 03:29:00,71.1,68.7,29.76,WSW,242,4.0,4.0,92,0.42,,,0.67,WeatherCatV1.15B25,2013-07-20 07:29:00,
2013-07-20 03:34:00,70.9,68.5,29.76,WSW,240,3.0,3.0,92,0.59,,,0.72,WeatherCatV1.15B25,2013-07-20 07:34:00,
2013-07-20 03:39:00,70.6,68.2,29.76,SSW,210,1.0,2.0,92,0.38,,,0.75,WeatherCatV1.15B25,2013-07-20 07:39:00,
2013-07-20 03:44:00,70.5,68.1,29.76,SSW,210,1.0,2.0,92,0.31,,,0.78,WeatherCatV1.15B25,2013-07-20 07:44:00,
2013-07-20 03:49:00,70.5,68.1,29.77,SSW,210,0.0,0.0,92,0.14,,,0.79,WeatherCatV1.15B25,2013-07-20 07:49:00,
2013-07-20 03:54:00,70.5,68.1,29.78,SSW,210,1.0,2.0,92,0.12,,,0.80,WeatherCatV1.15B25,2013-07-20 07:54:00,
2013-07-20 03:59:00,70.5,68.1,29.78,SSW,203,2.0,3.0,92,0.08,,,0.81,WeatherCatV1.15B25,2013-07-20 07:59:00,
2013-07-20 04:04:00,70.6,68.2,29.78,SSW,203,1.0,3.0,92,0.14,,,0.82,WeatherCatV1.15B25,2013-07-20 08:04:00,
2013-07-20 04:09:00,70.5,68.1,29.77,SSW,203,1.0,4.0,92,0.17,,,0.83,WeatherCatV1.15B25,2013-07-20 08:09:00,
2013-07-20 04:14:00,70.5,68.1,29.78,SSW,204,3.0,5.0,92,0.13,,,0.84,WeatherCatV1.15B25,2013-07-20 08:14:00,
2013-07-20 04:19:00,70.5,68.1,29.80,WSW,254,0.0,3.0,92,0.11,,,0.85,WeatherCatV1.15B25,2013-07-20 08:19:00,
2013-07-20 04:24:00,70.5,68.1,29.80,SSW,207,3.0,4.0,92,0.25,,,0.86,WeatherCatV1.15B25,2013-07-20 08:24:00,
2013-07-20 04:29:00,70.2,67.8,29.80,South,187,2.0,6.0,92,0.28,,,0.89,WeatherCatV1.15B25,2013-07-20 08:29:00,
2013-07-20 04:34:00,69.7,67.3,29.79,South,188,0.0,2.0,92,0.16,,,0.90,WeatherCatV1.15B25,2013-07-20 08:34:00,
2013-07-20 04:39:00,69.5,67.1,29.78,South,188,2.0,2.0,92,0.09,,,0.90,WeatherCatV1.15B25,2013-07-20 08:39:00,
2013-07-20 04:44:00,69.3,66.9,29.78,South,188,0.0,0.0,92,0.08,,,0.91,WeatherCatV1.15B25,2013-07-20 08:44:00,
2013-07-20 04:49:00,69.2,66.8,29.80,West,277,4.0,4.0,92,0.07,,,0.91,WeatherCatV1.15B25,2013-07-20 08:49:00,
2013-07-20 04:54:00,69.1,66.7,29.80,SSW,213,3.0,3.0,92,0.06,,,0.92,WeatherCatV1.15B25,2013-07-20 08:54:00,
2013-07-20 04:59:00,68.9,66.5,29.80,SSW,213,0.0,0.0,92,0.11,,,0.93,WeatherCatV1.15B25,2013-07-20 08:59:00,
2013-07-20 05:04:00,68.9,66.5,29.81,SSW,213,0.0,2.0,92,0.20,,,0.95,WeatherCatV1.15B25,2013-07-20 09:04:00,
2013-07-20 05:09:00,68.8,66.4,29.81,SSW,213,0.0,0.0,92,0.09,,,0.95,WeatherCatV1.15B25,2013-07-20 09:09:00,
2013-07-20 05:14:00,68.8,66.4,29.80,SSW,213,0.0,0.0,92,0.24,,,0.97,WeatherCatV1.15B25,2013-07-20 09:14:00,
2013-07-20 05:19:00,68.8,66.7,29.80,SSW,213,0.0,0.0,93,0.21,,,0.99,WeatherCatV1.15B25,2013-07-20 09:19:00,
2013-07-20 05:24:00,68.9,66.8,29.79,SSW,213,0.0,0.0,93,0.15,,,1.00,WeatherCatV1.15B25,2013-07-20 09:24:00,
2013-07-20 05:29:00,68.8,66.7,29.79,SE,127,0.0,2.0,93,0.19,,,1.01,WeatherCatV1.15B25,2013-07-20 09:29:00,
2013-07-20 05:34:00,68.8,66.7,29.78,SE,127,1.0,2.0,93,0.24,,,1.03,WeatherCatV1.15B25,2013-07-20 09:34:00,
2013-07-20 05:39:00,68.7,66.6,29.79,SE,127,0.0,2.0,93,0.19,,,1.05,WeatherCatV1.15B25,2013-07-20 09:39:00,
2013-07-20 05:44:00,68.7,66.6,29.80,SE,127,0.0,0.0,93,0.28,,,1.06,WeatherCatV1.15B25,2013-07-20 09:44:00,
2013-07-20 05:49:00,68.8,66.7,29.81,SE,127,0.0,0.0,93,0.17,,,1.08,WeatherCatV1.15B25,2013-07-20 09:49:00,
2013-07-20 05:54:00,68.8,66.7,29.80,SE,127,0.0,0.0,93,0.43,,,1.11,WeatherCatV1.15B25,2013-07-20 09:54:00,
2013-07-20 05:59:00,69.0,66.9,29.79,SE,127,0.0,0.0,93,0.30,,,1.13,WeatherCatV1.15B25,2013-07-20 09:59:00,
2013-07-20 06:04:00,68.9,66.8,29.78,SE,126,1.0,1.0,93,0.24,,,1.15,WeatherCatV1.15B25,2013-07-20 10:04:00,
2013-07-20 06:09:00,68.9,66.8,29.77,SE,127,0.0,1.0,93,0.13,,,1.16,WeatherCatV1.15B25,2013-07-20 10:09:00,
2013-07-20 06:14:00,69.0,66.9,29.74,SE,126,2.0,2.0,93,0.12,,,1.17,WeatherCatV1.15B25,2013-07-20 10:14:00,
2013-07-20 06:19:00,69.0,66.9,29.74,SE,127,0.0,2.0,93,0.10,,,1.18,WeatherCatV1.15B25,2013-07-20 10:19:00,
2013-07-20 06:24:00,69.0,66.9,29.75,North,0,0.0,0.0,93,0.09,,,1.18,WeatherCatV1.15B25,2013-07-20 10:24:00,
2013-07-20 06:29:00,69.0,66.9,29.76,NNW,348,0.0,0.0,93,0.08,,,1.19,WeatherCatV1.15B25,2013-07-20 10:29:00,
2013-07-20 06:34:00,69.0,66.9,29.75,ESE,116,0.0,2.0,93,0.11,,,1.20,WeatherCatV1.15B25,2013-07-20 10:34:00,
2013-07-20 06:39:00,69.0,66.9,29.73,ESE,112,3.0,4.0,93,0.13,,,1.22,WeatherCatV1.15B25,2013-07-20 10:39:00,
2013-07-20 06:44:00,69.1,67.0,29.76,WSW,246,3.0,3.0,93,0.12,,,1.23,WeatherCatV1.15B25,2013-07-20 10:44:00,
2013-07-20 06:49:00,69.0,66.9,29.76,SW,225,0.0,0.0,93,0.12,,,1.23,WeatherCatV1.15B25,2013-07-20 10:49:00,
2013-07-20 06:54:00,69.1,67.0,29.77,SW,225,0.0,2.0,93,0.06,,,1.24,WeatherCatV1.15B25,2013-07-20 10:54:00,
2013-07-20 06:59:00,69.0,66.9,29.77,SSW,207,1.0,4.0,93,0.13,,,1.25,WeatherCatV1.15B25,2013-07-20 10:59:00,
2013-07-20 07:04:00,69.0,66.9,29.78,SSW,193,0.0,4.0,93,0.11,,,1.25,WeatherCatV1.15B25,2013-07-20 11:04:00,
2013-07-20 07:09:00,69.1,67.0,29.79,SSW,201,4.0,4.0,93,0.10,,,1.26,WeatherCatV1.15B25,2013-07-20 11:09:00,
2013-07-20 07:14:00,69.0,66.9,29.79,SE,133,3.0,3.0,93,0.12,,,1.27,WeatherCatV1.15B25,2013-07-20 11:14:00,
2013-07-20 07:19:00,69.0,66.9,29.79,SE,133,1.0,3.0,93,0.06,,,1.27,WeatherCatV1.15B25,2013-07-20 11:19:00,
2013-07-20 07:24:00,69.1,67.0,29.80,SW,215,2.0,3.0,93,0.06,,,1.28,WeatherCatV1.15B25,2013-07-20 11:24:00,
2013-07-20 07:29:00,69.1,67.0,29.82,West,271,1.0,3.0,93,0.10,,,1.29,WeatherCatV1.15B25,2013-07-20 11:29:00,
2013-07-20 07:34:00,69.1,67.0,29.83,SW,230,2.0,3.0,93,0.23,,,1.31,WeatherCatV1.15B25,2013-07-20 11:34:00,
2013-07-20 07:39:00,69.0,66.9,29.82,SSW,192,0.0,0.0,93,0.10,,,1.31,WeatherCatV1.15B25,2013-07-20 11:39:00,
2013-07-20 07:44:00,69.1,67.0,29.80,East,98,1.0,2.0,93,0.26,,,1.33,WeatherCatV1.15B25,2013-07-20 11:44:00,
2013-07-20 07:49:00,69.0,66.9,29.79,ESE,110,1.0,4.0,93,0.14,,,1.34,WeatherCatV1.15B25,2013-07-20 11:49:00,
2013-07-20 07:54:00,68.9,66.8,29.79,South,180,1.0,2.0,93,0.11,,,1.35,WeatherCatV1.15B25,2013-07-20 11:54:00,
2013-07-20 07:59:00,68.8,66.7,29.79,South,182,2.0,5.0,93,0.09,,,1.35,WeatherCatV1.15B25,2013-07-20 11:59:00,
2013-07-20 08:04:00,68.8,66.7,29.79,SW,215,4.0,4.0,93,0.05,,,1.35,WeatherCatV1.15B25,2013-07-20 12:04:00,
2013-07-20 08:09:00,68.8,66.7,29.77,SE,133,0.0,0.0,93,0.04,,,1.35,WeatherCatV1.15B25,2013-07-20 12:09:00,
2013-07-20 08:14:00,68.7,66.6,29.75,SE,132,2.0,3.0,93,0.00,,,1.36,WeatherCatV1.15B25,2013-07-20 12:14:00,
2013-07-20 08:19:00,68.6,66.5,29.77,West,261,1.0,7.0,93,0.00,,,1.36,WeatherCatV1.15B25,2013-07-20 12:19:00,
2013-07-20 08:25:00,68.6,66.5,29.77,South,178,1.0,4.0,93,0.00,,,1.36,WeatherCatV1.15B25,2013-07-20 12:25:00,
2013-07-20 08:30:00,68.6,66.5,29.77,SE,146,0.0,2.0,93,0.00,,,1.36,WeatherCatV1.15B25,2013-07-20 12:30:00,
2013-07-20 08:35:00,68.6,66.5,29.78,West,261,3.0,3.0,93,0.00,,,1.36,WeatherCatV1.15B25,2013-07-20 12:35:00,
2013-07-20 08:40:00,68.7,66.6,29.78,SW,220,2.0,4.0,93,0.00,,,1.36,WeatherCatV1.15B25,2013-07-20 12:40:00,
2013-07-20 08:45:00,68.7,66.6,29.78,SW,215,3.0,5.0,93,0.00,,,1.36,WeatherCatV1.15B25,2013-07-20 12:45:00,
2013-07-20 08:50:00,68.8,66.7,29.77,South,186,0.0,1.0,93,0.00,,,1.37,WeatherCatV1.15B25,2013-07-20 12:50:00,
2013-07-20 08:55:00,68.8,66.7,29.77,South,186,1.0,1.0,93,0.00,,,1.37,WeatherCatV1.15B25,2013-07-20 12:55:00,
2013-07-20 09:00:00,68.8,66.7,29.77,East,87,0.0,2.0,93,0.00,,,1.37,WeatherCatV1.15B25,2013-07-20 13:00:00,
2013-07-20 09:05:00,68.9,66.8,29.77,East,101,0.0,1.0,93,0.00,,,1.37,WeatherCatV1.15B25,2013-07-20 13:05:00,
2013-07-20 09:10:00,68.9,66.8,29.77,South,171,0.0,0.0,93,0.00,,,1.37,WeatherCatV1.15B25,2013-07-20 13:10:00,
2013-07-20 09:15:00,69.1,67.0,29.78,SW,219,2.0,3.0,93,0.00,,,1.37,WeatherCatV1.15B25,2013-07-20 13:15:00,
2013-07-20 09:20:00,69.2,67.1,29.79,WNW,285,2.0,2.0,93,0.00,,,1.37,WeatherCatV1.15B25,2013-07-20 13:20:00,
2013-07-20 09:25:00,69.3,67.2,29.80,West,261,0.0,0.0,93,0.00,,,1.37,WeatherCatV1.15B25,2013-07-20 13:25:00,
2013-07-20 09:30:00,69.4,67.3,29.80,West,260,0.0,2.0,93,0.00,,,1.37,WeatherCatV1.15B25,2013-07-20 13:30:00,
2013-07-20 09:35:00,69.5,67.4,29.80,West,259,0.0,3.0,93,0.00,,,1.37,WeatherCatV1.15B25,2013-07-20 13:35:00,
2013-07-20 09:40:00,69.6,67.5,29.81,WSW,250,1.0,3.0,93,0.00,,,1.37,WeatherCatV1.15B25,2013-07-20 13:40:00,
2013-07-20 09:45:00,69.8,67.7,29.81,South,186,0.0,1.0,93,0.00,,,1.37,WeatherCatV1.15B25,2013-07-20 13:45:00,
2013-07-20 09:50:00,69.9,67.8,29.81,West,279,0.0,2.0,93,0.00,,,1.37,WeatherCatV1.15B25,2013-07-20 13:50:00,
2013-07-20 09:55:00,70.0,67.9,29.81,West,279,0.0,0.0,93,0.00,,,1.37,WeatherCatV1.15B25,2013-07-20 13:55:00,
2013-07-20 10:00:00,70.3,68.2,29.80,SW,229,1.0,2.0,93,0.00,,,1.37,WeatherCatV1.15B25,2013-07-20 14:00:00,
2013-07-20 10:05:00,70.4,68.3,29.80,North,355,0.0,1.0,93,0.00,,,1.37,WeatherCatV1.15B25,2013-07-20 14:05:00,
2013-07-20 10:10:00,70.7,68.6,29.80,East,96,0.0,0.0,93,0.00,,,1.37,WeatherCatV1.15B25,2013-07-20 14:10:00,
2013-07-20 10:15:00,70.9,68.8,29.79,NE,53,0.0,2.0,93,0.00,,,1.37,WeatherCatV1.15B25,2013-07-20 14:15:00,
2013-07-20 10:20:00,71.2,69.1,29.80,NE,53,0.0,0.0,93,0.00,,,1.37,WeatherCatV1.15B25,2013-07-20 14:20:00,
2013-07-20 10:25:00,71.6,69.5,29.80,SW,223,0.0,2.0,93,0.00,,,1.37,WeatherCatV1.15B25,2013-07-20 14:25:00,
2013-07-20 10:30:00,71.8,69.3,29.80,SW,223,0.0,1.0,92,0.00,,,1.37,WeatherCatV1.15B25,2013-07-20 14:30:00,
2013-07-20 10:35:00,71.9,69.4,29.80,ESE,120,0.0,0.0,92,0.00,,,1.37,WeatherCatV1.15B25,2013-07-20 14:35:00,
2013-07-20 10:40:00,72.0,69.5,29.80,ESE,121,0.0,0.0,92,0.00,,,1.37,WeatherCatV1.15B25,2013-07-20 14:40:00,
2013-07-20 10:45:00,72.1,69.6,29.80,ESE,121,0.0,0.0,92,0.00,,,1.37,WeatherCatV1.15B25,2013-07-20 14:45:00,
2013-07-20 10:50:00,72.1,69.6,29.80,ESE,121,0.0,0.0,92,0.00,,,1.37,WeatherCatV1.15B25,2013-07-20 14:50:00,
2013-07-20 10:55:00,72.3,69.8,29.80,West,271,0.0,1.0,92,0.00,,,1.37,WeatherCatV1.15B25,2013-07-20 14:55:00,
2013-07-20 11:00:00,72.6,70.1,29.80,West,275,1.0,3.0,92,0.00,,,1.37,WeatherCatV1.15B25,2013-07-20 15:00:00,
2013-07-20 11:05:00,73.0,70.5,29.80,WSW,249,3.0,3.0,92,0.00,,,1.37,WeatherCatV1.15B25,2013-07-20 15:05:00,
2013-07-20 11:10:00,73.1,70.3,29.80,SW,225,1.0,4.0,91,0.00,,,1.37,WeatherCatV1.15B25,2013-07-20 15:10:00,
2013-07-20 11:15:00,73.2,70.4,29.80,SW,222,0.0,0.0,91,0.00,,,1.37,WeatherCatV1.15B25,2013-07-20 15:15:00,
2013-07-20 11:20:00,73.3,70.2,29.80,WSW,256,1.0,4.0,90,0.00,,,1.37,WeatherCatV1.15B25,2013-07-20 15:20:00,
2013-07-20 11:25:00,73.6,70.5,29.80,WSW,239,0.0,2.0,90,0.00,,,1.37,WeatherCatV1.15B25,2013-07-20 15:25:00,
2013-07-20 11:30:00,73.9,70.8,29.80,SW,221,2.0,4.0,90,0.00,,,1.37,WeatherCatV1.15B25,2013-07-20 15:30:00,
2013-07-20 11:35:00,74.3,70.8,29.80,West,276,5.0,6.0,89,0.00,,,1.37,WeatherCatV1.15B25,2013-07-20 15:35:00,
2013-07-20 11:40:00,74.7,70.9,29.80,SW,232,1.0,6.0,88,0.00,,,1.37,WeatherCatV1.15B25,2013-07-20 15:40:00,
2013-07-20 11:45:00,74.9,70.8,29.80,SW,227,1.0,1.0,87,0.00,,,1.37,WeatherCatV1.15B25,2013-07-20 15:45:00,
2013-07-20 11:50:00,75.3,70.5,29.80,WSW,248,2.0,9.0,85,0.00,,,1.37,WeatherCatV1.15B25,2013-07-20 15:50:00,
2013-07-20 11:55:00,75.5,70.0,29.80,SW,217,2.0,5.0,83,0.00,,,1.37,WeatherCatV1.15B25,2013-07-20 15:55:00,
2013-07-20 12:00:00,75.9,70.0,29.81,West,280,2.0,5.0,82,0.00,,,1.37,WeatherCatV1.15B25,2013-07-20 16:00:00,
2013-07-20 12:05:00,76.3,70.7,29.80,WSW,257,1.0,5.0,83,0.00,,,1.37,WeatherCatV1.15B25,2013-07-20 16:05:00,
2013-07-20 12:10:00,76.3,70.0,29.80,SSE,167,2.0,9.0,81,0.00,,,1.37,WeatherCatV1.15B25,2013-07-20 16:10:00,
2013-07-20 12:15:00,76.1,69.8,29.80,South,190,3.0,5.0,81,0.00,,,1.37,WeatherCatV1.15B25,2013-07-20 16:15:00,
2013-07-20 12:20:00,76.3,70.0,29.80,WSW,246,3.0,6.0,81,0.00,,,1.37,WeatherCatV1.15B25,2013-07-20 16:20:00,
2013-07-20 12:25:00,76.3,69.7,29.80,SW,223,3.0,6.0,80,0.00,,,1.37,WeatherCatV1.15B25,2013-07-20 16:25:00,
2013-07-20 12:30:00,76.2,69.6,29.80,SW,229,3.0,6.0,80,0.00,,,1.37,WeatherCatV1.15B25,2013-07-20 16:30:00,
2013-07-20 12:35:00,76.2,69.6,29.80,SSW,209,4.0,10.0,80,0.00,,,1.37,WeatherCatV1.15B25,2013-07-20 16:35:00,
2013-07-20 12:41:00,76.2,69.6,29.80,WNW,287,6.0,6.0,80,0.00,,,1.37,WeatherCatV1.15B25,2013-07-20 16:41:00,
2013-07-20 12:46:00,76.3,70.0,29.80,West,274,2.0,5.0,81,0.00,,,1.37,WeatherCatV1.15B25,2013-07-20 16:46:00,
2013-07-20 12:51:00,76.8,70.5,29.80,SSW,213,3.0,5.0,81,0.00,,,1.37,WeatherCatV1.15B25,2013-07-20 16:51:00,
2013-07-20 12:56:00,77.0,70.3,29.80,SW,217,6.0,6.0,80,0.00,,,1.37,WeatherCatV1.15B25,2013-07-20 16:56:00,
2013-07-20 13:01:00,77.8,71.1,29.79,SW,217,0.0,2.0,80,0.00,,,1.37,WeatherCatV1.15B25,2013-07-20 17:01:00,
2013-07-20 13:06:00,78.0,70.9,29.79,WSW,253,4.0,5.0,79,0.00,,,1.37,WeatherCatV1.15B25,2013-07-20 17:06:00,
2013-07-20 13:11:00,78.2,71.1,29.79,SW,234,2.0,6.0,79,0.00,,,1.37,WeatherCatV1.15B25,2013-07-20 17:11:00,
2013-07-20 13:16:00,78.2,71.5,29.79,WSW,256,0.0,4.0,80,0.00,,,1.37,WeatherCatV1.15B25,2013-07-20 17:16:00,
2013-07-20 13:21:00,79.4,73.0,29.79,WSW,246,3.0,4.0,81,0.00,,,1.37,WeatherCatV1.15B25,2013-07-20 17:21:00,
2013-07-20 13:26:00,79.2,71.7,29.79,West,278,4.0,4.0,78,0.00,,,1.37,WeatherCatV1.15B25,2013-07-20 17:26:00,
2013-07-20 13:31:00,78.8,71.3,29.79,West,274,0.0,6.0,78,0.00,,,1.37,WeatherCatV1.15B25,2013-07-20 17:31:00,
2013-07-20 13:36:00,78.8,71.7,29.80,WNW,288,0.0,7.0,79,0.00,,,1.37,WeatherCatV1.15B25,2013-07-20 17:36:00,
2013-07-20 13:41:00,78.7,71.2,29.80,SW,232,2.0,5.0,78,0.00,,,1.37,WeatherCatV1.15B25,2013-07-20 17:41:00,
2013-07-20 13:46:00,78.3,70.9,29.79,SW,233,2.0,6.0,78,0.00,,,1.37,WeatherCatV1.15B25,2013-07-20 17:46:00,
2013-07-20 13:51:00,78.1,71.0,29.80,SW,226,0.0,7.0,79,0.00,,,1.37,WeatherCatV1.15B25,2013-07-20 17:51:00,
2013-07-20 13:56:00,78.1,71.0,29.80,SW,221,3.0,5.0,79,0.00,,,1.37,WeatherCatV1.15B25,2013-07-20 17:56:00,
2013-07-20 14:01:00,77.9,70.8,29.80,WSW,241,4.0,7.0,79,0.00,,,1.37,WeatherCatV1.15B25,2013-07-20 18:01:00,
2013-07-20 14:07:00,77.6,70.9,29.80,SW,220,3.0,6.0,80,0.00,,,1.37,WeatherCatV1.15B25,2013-07-20 18:07:00,
2013-07-20 14:12:00,77.6,71.7,29.81,West,265,2.0,5.0,82,0.00,,,1.37,WeatherCatV1.15B25,2013-07-20 18:12:00,
2013-07-20 14:17:00,77.4,71.5,29.81,SW,229,2.0,4.0,82,0.00,,,1.37,WeatherCatV1.15B25,2013-07-20 18:17:00,
2013-07-20 14:22:00,77.2,71.3,29.81,SSW,213,3.0,4.0,82,0.00,,,1.37,WeatherCatV1.15B25,2013-07-20 18:22:00,
2013-07-20 14:27:00,77.0,70.7,29.81,WNW,286,2.0,7.0,81,0.00,,,1.37,WeatherCatV1.15B25,2013-07-20 18:27:00,
2013-07-20 14:32:00,76.7,70.8,29.81,SW,219,1.0,5.0,82,0.00,,,1.37,WeatherCatV1.15B25,2013-07-20 18:32:00,
2013-07-20 14:37:00,76.6,71.0,29.81,SW,214,0.0,4.0,83,0.00,,,1.37,WeatherCatV1.15B25,2013-07-20 18:37:00,
2013-07-20 14:42:00,76.9,71.7,29.81,WSW,242,2.0,3.0,84,0.00,,,1.37,WeatherCatV1.15B25,2013-07-20 18:42:00,
2013-07-20 14:47:00,76.9,71.3,29.81,West,281,1.0,5.0,83,0.00,,,1.37,WeatherCatV1.15B25,2013-07-20 18:47:00,
2013-07-20 14:52:00,76.8,71.2,29.81,SW,222,2.0,6.0,83,0.00,,,1.37,WeatherCatV1.15B25,2013-07-20 18:52:00,
2013-07-20 14:57:00,76.7,71.1,29.81,WNW,302,1.0,2.0,83,0.00,,,1.37,WeatherCatV1.15B25,2013-07-20 18:57:00,
2013-07-20 15:02:00,76.6,71.4,29.81,WSW,245,2.0,4.0,84,0.00,,,1.37,WeatherCatV1.15B25,2013-07-20 19:02:00,
2013-07-20 15:07:00,76.5,71.3,29.81,West,265,1.0,3.0,84,0.00,,,1.37,WeatherCatV1.15B25,2013-07-20 19:07:00,
2013-07-20 15:12:00,76.5,71.3,29.81,WSW,240,2.0,3.0,84,0.00,,,1.37,WeatherCatV1.15B25,2013-07-20 19:12:00,
2013-07-20 15:17:00,76.8,71.6,29.81,WSW,257,2.0,3.0,84,0.00,,,1.37,WeatherCatV1.15B25,2013-07-20 19:17:00,
2013-07-20 15:22:00,77.1,71.9,29.81,SSW,210,2.0,4.0,84,0.00,,,1.37,WeatherCatV1.15B25,2013-07-20 19:22:00,
2013-07-20 15:28:00,77.3,71.7,29.81,SW,236,0.0,3.0,83,0.00,,,1.37,WeatherCatV1.15B25,2013-07-20 19:28:00,
2013-07-20 15:33:00,77.6,72.0,29.81,WSW,254,1.0,2.0,83,0.00,,,1.37,WeatherCatV1.15B25,2013-07-20 19:33:00,
2013-07-20 15:39:00,77.8,72.2,29.80,WNW,290,3.0,4.0,83,0.00,,,1.37,WeatherCatV1.15B25,2013-07-20 19:39:00,
2013-07-20 15:44:00,78.1,72.5,29.80,West,261,3.0,3.0,83,0.00,,,1.37,WeatherCatV1.15B25,2013-07-20 19:44:00,
2013-07-20 15:49:00,78.3,72.7,29.80,West,262,5.0,11.0,83,0.00,,,1.37,WeatherCatV1.15B25,2013-07-20 19:49:00,
2013-07-20 15:54:00,78.6,73.0,29.80,SW,226,5.0,6.0,83,0.00,,,1.37,WeatherCatV1.15B25,2013-07-20 19:54:00,
2013-07-20 15:59:00,78.7,72.4,29.80,West,265,0.0,9.0,81,0.00,,,1.37,WeatherCatV1.15B25,2013-07-20 19:59:00,
2013-07-20 16:04:00,78.6,72.3,29.80,WSW,255,0.0,7.0,81,0.00,,,1.37,WeatherCatV1.15B25,2013-07-20 20:04:00,
2013-07-20 16:11:00,78.1,72.1,29.80,SW,225,3.0,9.0,82,0.00,,,1.37,WeatherCatV1.15B25,2013-07-20 20:11:00,
2013-07-20 16:17:00,77.9,72.3,29.80,SW,233,3.0,5.0,83,0.00,,,1.37,WeatherCatV1.15B25,2013-07-20 20:17:00,
2013-07-20 16:23:00,77.8,72.6,29.80,West,264,2.0,3.0,84,0.00,,,1.37,WeatherCatV1.15B25,2013-07-20 20:23:00,
2013-07-20 16:28:00,77.7,72.1,29.81,SW,221,3.0,7.0,83,0.00,,,1.37,WeatherCatV1.15B25,2013-07-20 20:28:00,
2013-07-20 16:33:00,77.6,72.4,29.80,West,260,3.0,5.0,84,0.00,,,1.37,WeatherCatV1.15B25,2013-07-20 20:33:00,
2013-07-20 16:38:00,78.5,73.6,29.80,West,272,3.0,3.0,85,0.00,,,1.37,WeatherCatV1.15B25,2013-07-20 20:38:00,
2013-07-20 16:43:00,78.9,73.3,29.80,SW,225,3.0,5.0,83,0.00,,,1.37,WeatherCatV1.15B25,2013-07-20 20:43:00,
2013-07-20 16:48:00,78.5,72.2,29.81,WSW,240,2.0,6.0,81,0.00,,,1.37,WeatherCatV1.15B25,2013-07-20 20:48:00,
2013-07-20 16:53:00,78.1,71.0,29.81,SW,223,2.0,3.0,79,0.00,,,1.37,WeatherCatV1.15B25,2013-07-20 20:53:00,
2013-07-20 16:59:00,78.3,71.6,29.81,SW,229,3.0,4.0,80,0.00,,,1.37,WeatherCatV1.15B25,2013-07-20 20:59:00,
2013-07-20 17:04:00,78.9,71.4,29.81,SW,229,2.0,5.0,78,0.00,,,1.37,WeatherCatV1.15B25,2013-07-20 21:04:00,
2013-07-20 17:10:00,79.5,69.7,29.81,WNW,297,1.0,3.0,72,0.00,,,1.37,WeatherCatV1.15B25,2013-07-20 21:10:00,
2013-07-20 17:16:00,79.7,69.4,29.81,SW,223,2.0,3.0,71,0.00,,,1.37,WeatherCatV1.15B25,2013-07-20 21:16:00,
2013-07-20 17:21:00,79.7,69.0,29.81,WNW,288,0.0,2.0,70,0.00,,,1.37,WeatherCatV1.15B25,2013-07-20 21:21:00,
2013-07-20 17:26:00,79.9,68.4,29.81,West,260,2.0,5.0,68,0.00,,,1.37,WeatherCatV1.15B25,2013-07-20 21:26:00,
2013-07-20 17:31:00,79.9,68.8,29.81,WSW,254,0.0,3.0,69,0.00,,,1.37,WeatherCatV1.15B25,2013-07-20 21:31:00,
2013-07-20 17:36:00,79.7,69.0,29.81,SSW,201,1.0,2.0,70,0.00,,,1.37,WeatherCatV1.15B25,2013-07-20 21:36:00,
2013-07-20 17:41:00,79.2,69.4,29.81,SSW,201,0.0,2.0,72,0.00,,,1.37,WeatherCatV1.15B25,2013-07-20 21:41:00,
2013-07-20 17:46:00,79.3,68.6,29.81,SSW,202,0.0,3.0,70,0.00,,,1.37,WeatherCatV1.15B25,2013-07-20 21:46:00,
2013-07-20 17:51:00,79.1,68.9,29.81,West,281,2.0,3.0,71,0.00,,,1.37,WeatherCatV1.15B25,2013-07-20 21:51:00,
2013-07-20 17:56:00,79.5,70.5,29.81,West,281,1.0,2.0,74,0.00,,,1.37,WeatherCatV1.15B25,2013-07-20 21:56:00,
2013-07-20 18:01:00,79.2,69.8,29.81,SW,219,2.0,4.0,73,0.00,,,1.37,WeatherCatV1.15B25,2013-07-20 22:01:00,
2013-07-20 18:06:00,79.5,70.5,29.81,SW,226,2.0,2.0,74,0.00,,,1.37,WeatherCatV1.15B25,2013-07-20 22:06:00,
2013-07-20 18:12:00,79.8,70.4,29.81,WSW,254,0.0,0.0,73,0.00,,,1.37,WeatherCatV1.15B25,2013-07-20 22:12:00,
2013-07-20 18:17:00,79.8,69.9,29.81,West,277,0.0,0.0,72,0.00,,,1.37,WeatherCatV1.15B25,2013-07-20 22:17:00,
2013-07-20 18:22:00,80.3,70.4,29.81,West,273,0.0,0.0,72,0.00,,,1.37,WeatherCatV1.15B25,2013-07-20 22:22:00,
2013-07-20 18:27:00,80.3,69.2,29.81,SSW,205,2.0,3.0,69,0.00,,,1.37,WeatherCatV1.15B25,2013-07-20 22:27:00,
2013-07-20 18:33:00,79.7,68.6,29.81,WSW,237,0.0,0.0,69,0.00,,,1.37,WeatherCatV1.15B25,2013-07-20 22:33:00,
2013-07-20 18:38:00,79.5,69.7,29.81,WSW,237,0.0,1.0,72,0.00,,,1.37,WeatherCatV1.15B25,2013-07-20 22:38:00,
2013-07-20 18:43:00,79.1,68.9,29.81,WSW,241,0.0,3.0,71,0.00,,,1.37,WeatherCatV1.15B25,2013-07-20 22:43:00,
2013-07-20 18:48:00,78.8,69.0,29.81,WSW,241,0.0,1.0,72,0.00,,,1.37,WeatherCatV1.15B25,2013-07-20 22:48:00,
2013-07-20 18:53:00,78.5,69.1,29.81,WSW,242,0.0,1.0,73,0.00,,,1.37,WeatherCatV1.15B25,2013-07-20 22:53:00,
2013-07-20 18:58:00,78.5,69.5,29.81,WSW,242,0.0,0.0,74,0.00,,,1.37,WeatherCatV1.15B25,2013-07-20 22:58:00,
2013-07-20 19:03:00,78.7,70.1,29.81,WSW,242,0.0,0.0,75,0.00,,,1.37,WeatherCatV1.15B25,2013-07-20 23:03:00,
2013-07-20 19:08:00,79.2,70.2,29.81,WSW,242,0.0,0.0,74,0.00,,,1.37,WeatherCatV1.15B25,2013-07-20 23:08:00,
2013-07-20 19:13:00,79.5,69.2,29.81,WSW,242,0.0,0.0,71,0.00,,,1.37,WeatherCatV1.15B25,2013-07-20 23:13:00,
2013-07-20 19:18:00,79.4,69.6,29.81,WSW,242,0.0,0.0,72,0.00,,,1.37,WeatherCatV1.15B25,2013-07-20 23:18:00,
2013-07-20 19:23:00,79.2,69.0,29.81,WSW,242,0.0,0.0,71,0.00,,,1.37,WeatherCatV1.15B25,2013-07-20 23:23:00,
2013-07-20 19:28:00,79.0,68.8,29.81,WSW,242,0.0,0.0,71,0.00,,,1.37,WeatherCatV1.15B25,2013-07-20 23:28:00,
2013-07-20 19:33:00,78.7,68.9,29.81,WSW,242,0.0,0.0,72,0.00,,,1.37,WeatherCatV1.15B25,2013-07-20 23:33:00,
2013-07-20 19:38:00,78.4,68.6,29.82,WSW,241,0.0,0.0,72,0.00,,,1.37,WeatherCatV1.15B25,2013-07-20 23:38:00,
2013-07-20 19:43:00,78.2,68.8,29.81,WSW,241,0.0,0.0,73,0.00,,,1.37,WeatherCatV1.15B25,2013-07-20 23:43:00,
2013-07-20 19:48:00,78.0,68.6,29.82,WSW,242,0.0,0.0,73,0.00,,,1.37,WeatherCatV1.15B25,2013-07-20 23:48:00,
2013-07-20 19:53:00,77.9,68.9,29.81,WSW,241,0.0,0.0,74,0.00,,,1.37,WeatherCatV1.15B25,2013-07-20 23:53:00,
2013-07-20 19:58:00,78.0,69.8,29.82,WSW,242,0.0,0.0,76,0.00,,,1.37,WeatherCatV1.15B25,2013-07-20 23:58:00,
2013-07-20 20:04:00,77.8,69.6,29.82,WSW,242,0.0,0.0,76,0.00,,,1.37,WeatherCatV1.15B25,2013-07-21 00:04:00,
2013-07-20 20:09:00,77.4,68.8,29.82,WSW,242,0.0,0.0,75,0.00,,,1.37,WeatherCatV1.15B25,2013-07-21 00:09:00,
2013-07-20 20:14:00,77.3,68.3,29.82,WSW,242,0.0,0.0,74,0.00,,,1.37,WeatherCatV1.15B25,2013-07-21 00:14:00,
2013-07-20 20:19:00,77.3,69.1,29.83,WSW,242,0.0,0.0,76,0.00,,,1.37,WeatherCatV1.15B25,2013-07-21 00:19:00,
2013-07-20 20:24:00,77.2,69.0,29.83,SSE,152,0.0,0.0,76,0.00,,,1.37,WeatherCatV1.15B25,2013-07-21 00:24:00,
2013-07-20 20:29:00,77.3,69.5,29.83,SSE,152,0.0,0.0,77,0.00,,,1.37,WeatherCatV1.15B25,2013-07-21 00:29:00,
2013-07-20 20:34:00,77.2,69.8,29.83,SSE,152,0.0,0.0,78,0.00,,,1.37,WeatherCatV1.15B25,2013-07-21 00:34:00,
2013-07-20 20:39:00,77.0,69.6,29.83,SSE,152,0.0,0.0,78,0.00,,,1.37,WeatherCatV1.15B25,2013-07-21 00:39:00,
2013-07-20 20:44:00,76.7,69.7,29.83,SSE,152,0.0,0.0,79,0.00,,,1.37,WeatherCatV1.15B25,2013-07-21 00:44:00,
2013-07-20 20:49:00,76.4,69.8,29.84,SSE,152,0.0,0.0,80,0.00,,,1.37,WeatherCatV1.15B25,2013-07-21 00:49:00,
2013-07-20 20:54:00,75.9,69.3,29.84,SSE,152,0.0,0.0,80,0.00,,,1.37,WeatherCatV1.15B25,2013-07-21 00:54:00,
2013-07-20 21:00:00,75.2,69.3,29.84,SSE,152,0.0,0.0,82,0.00,,,1.37,WeatherCatV1.15B25,2013-07-21 01:00:00,
2013-07-20 21:05:00,74.8,69.3,29.84,SSE,152,0.0,0.0,83,0.00,,,1.37,WeatherCatV1.15B25,2013-07-21 01:05:00,
2013-07-20 21:10:00,74.5,69.3,29.84,SSE,152,0.0,0.0,84,0.00,,,1.37,WeatherCatV1.15B25,2013-07-21 01:10:00,
2013-07-20 21:17:00,74.2,69.0,29.85,SSE,152,0.0,0.0,84,0.00,,,1.37,WeatherCatV1.15B25,2013-07-21 01:17:00,
2013-07-20 21:23:00,73.8,68.7,29.85,SSE,152,0.0,0.0,84,0.00,,,1.37,WeatherCatV1.15B25,2013-07-21 01:23:00,
2013-07-20 21:28:00,73.6,68.8,29.85,SSE,152,0.0,0.0,85,0.00,,,1.37,WeatherCatV1.15B25,2013-07-21 01:28:00,
2013-07-20 21:34:00,73.4,68.6,29.85,SSE,152,0.0,0.0,85,0.00,,,1.37,WeatherCatV1.15B25,2013-07-21 01:34:00,
2013-07-20 21:39:00,73.3,68.5,29.85,SSE,152,0.0,0.0,85,0.00,,,1.37,WeatherCatV1.15B25,2013-07-21 01:39:00,
2013-07-20 21:44:00,73.1,68.7,29.85,SSE,152,0.0,0.0,86,0.00,,,1.37,WeatherCatV1.15B25,2013-07-21 01:44:00,
2013-07-20 21:50:00,72.9,68.5,29.85,SSE,152,0.0,0.0,86,0.00,,,1.37,WeatherCatV1.15B25,2013-07-21 01:50:00,
2013-07-20 21:55:00,72.8,68.4,29.85,SSE,152,0.0,0.0,86,0.00,,,1.37,WeatherCatV1.15B25,2013-07-21 01:55:00,
2013-07-20 22:00:00,72.6,68.5,29.85,SSE,152,0.0,0.0,87,0.00,,,1.37,WeatherCatV1.15B25,2013-07-21 02:00:00,
2013-07-20 22:05:00,72.5,68.4,29.86,SSE,152,0.0,0.0,87,0.00,,,1.37,WeatherCatV1.15B25,2013-07-21 02:05:00,
2013-07-20 22:10:00,72.3,68.2,29.86,SSE,152,0.0,0.0,87,0.00,,,1.37,WeatherCatV1.15B25,2013-07-21 02:10:00,
2013-07-20 22:15:00,72.2,68.1,29.86,SSE,152,0.0,0.0,87,0.00,,,1.37,WeatherCatV1.15B25,2013-07-21 02:15:00,
2013-07-20 22:21:00,72.0,68.2,29.86,SSE,152,0.0,0.0,88,0.00,,,1.37,WeatherCatV1.15B25,2013-07-21 02:21:00,
2013-07-20 22:26:00,72.0,68.2,29.86,SSE,152,0.0,0.0,88,0.00,,,1.37,WeatherCatV1.15B25,2013-07-21 02:26:00,
2013-07-20 22:31:00,71.9,68.1,29.86,SSE,152,0.0,0.0,88,0.00,,,1.37,WeatherCatV1.15B25,2013-07-21 02:31:00,
2013-07-20 22:37:00,71.8,68.0,29.86,SSE,152,0.0,0.0,88,0.00,,,1.37,WeatherCatV1.15B25,2013-07-21 02:37:00,
2013-07-20 22:42:00,71.7,67.9,29.86,SSE,152,0.0,0.0,88,0.00,,,1.37,WeatherCatV1.15B25,2013-07-21 02:42:00,
2013-07-20 22:47:00,71.6,67.8,29.86,SSE,152,0.0,0.0,88,0.00,,,1.37,WeatherCatV1.15B25,2013-07-21 02:47:00,
2013-07-20 22:52:00,71.4,67.7,29.86,SSE,152,0.0,0.0,88,0.00,,,1.37,WeatherCatV1.15B25,2013-07-21 02:52:00,
2013-07-20 22:57:00,71.3,67.6,29.86,SSE,152,0.0,0.0,88,0.00,,,1.37,WeatherCatV1.15B25,2013-07-21 02:57:00,
2013-07-20 23:02:00,71.1,67.7,29.86,SSE,152,0.0,0.0,89,0.00,,,1.37,WeatherCatV1.15B25,2013-07-21 03:02:00,
2013-07-20 23:07:00,71.1,67.7,29.86,SSE,152,0.0,0.0,89,0.00,,,1.37,WeatherCatV1.15B25,2013-07-21 03:07:00,
2013-07-20 23:12:00,71.1,67.7,29.86,SSE,152,0.0,0.0,89,0.00,,,1.37,WeatherCatV1.15B25,2013-07-21 03:12:00,
2013-07-20 23:17:00,71.0,67.6,29.87,SSE,152,0.0,0.0,89,0.00,,,1.37,WeatherCatV1.15B25,2013-07-21 03:17:00,
2013-07-20 23:22:00,70.9,67.5,29.87,SSE,152,0.0,0.0,89,0.00,,,1.37,WeatherCatV1.15B25,2013-07-21 03:22:00,
2013-07-20 23:27:00,70.8,67.7,29.87,SSE,152,0.0,0.0,90,0.00,,,1.37,WeatherCatV1.15B25,2013-07-21 03:27:00,
2013-07-20 23:33:00,70.7,67.6,29.87,SSE,152,0.0,0.0,90,0.00,,,1.37,WeatherCatV1.15B25,2013-07-21 03:33:00,
2013-07-20 23:38:00,70.7,67.6,29.87,SSE,152,0.0,0.0,90,0.00,,,1.37,WeatherCatV1.15B25,2013-07-21 03:38:00,
2013-07-20 23:44:00,70.6,67.5,29.87,SSE,152,0.0,0.0,90,0.00,,,1.37,WeatherCatV1.15B25,2013-07-21 03:44:00,
2013-07-20 23:49:00,70.5,67.4,29.87,SSE,152,0.0,0.0,90,0.00,,,1.37,WeatherCatV1.15B25,2013-07-21 03:49:00,
2013-07-20 23:54:00,70.4,67.3,29.88,SSE,152,0.0,0.0,90,0.00,,,1.37,WeatherCatV1.15B25,2013-07-21 03:54:00,
2013-07-20 23:59:00,70.4,67.3,29.88,SSE,152,0.0,0.0,90,0.00,,,1.37,WeatherCatV1.15B25,2013-07-21 03:59:00,